EW0608 Weather Reports


Display with metric or nautical units.
time (UTC)temp
F
wind
direction
speed
MPH
gust
MPH
rain 1hr
in
rain 24hr
in
rain mn
in
humidity
%
barometer
mb
20260503023059 45 335 0.0 5.0 0.00 0.00 0.00 62 1015.2
20260503022846 45 335 3.0 5.0 0.00 0.00 0.00 62 1015.0
20260503022339 45 346 1.0 3.0 0.00 0.00 0.00 61 1014.9
20260503021911 46 26 1.0 4.0 0.00 0.00 0.00 61 1014.9
20260503021549 45 68 0.0 4.0 0.00 0.00 0.00 61 1015.2
20260503021343 46 68 2.0 4.0 0.00 0.00 0.00 60 1014.9
20260503020836 46 315 0.0 3.0 0.00 0.00 0.00 60 1014.8
20260503020348 46 314 1.0 3.0 0.00 0.00 0.00 59 1014.7
20260503020039 46 316 0.0 2.0 0.00 0.00 0.00 59 1015.1
20260503015838 46 316 1.0 2.0 0.00 0.00 0.00 58 1014.8
20260503015350 47 316 0.0 3.0 0.00 0.00 0.00 58 1014.8
20260503014847 47 316 2.0 3.0 0.00 0.00 0.00 57 1014.8
20260503014538 46 355 0.0 3.0 0.00 0.00 0.00 57 1015.0
20260503014338 47 336 1.0 3.0 0.00 0.00 0.00 57 1014.7
20260503013352 47 36 1.0 5.0 0.00 0.00 0.00 57 1014.5
20260503013047 47 10 2.0 5.0 0.00 0.00 0.00 56 1014.7
20260503012846 47 342 3.0 5.0 0.00 0.00 0.00 56 1014.4
20260503012339 47 41 1.0 4.0 0.00 0.00 0.00 57 1014.4
20260503011912 48 62 1.0 7.0 0.00 0.00 0.00 57 1014.3
20260503011558 47 35 3.0 7.0 0.00 0.00 0.00 56 1014.5
20260503011344 48 59 2.0 7.0 0.00 0.00 0.00 56 1014.2
20260503010835 48 305 1.0 3.0 0.00 0.00 0.00 55 1014.1
20260503010009 48 360 2.0 4.0 0.00 0.00 0.00 55 1014.2
20260503005908 48 294 1.0 7.0 0.00 0.00 0.00 56 1014.0
20260503005339 48 355 3.0 7.0 0.00 0.00 0.00 55 1013.9
20260503004851 48 70 2.0 3.0 0.00 0.00 0.00 55 1013.8
20260503004507 48 334 0.0 5.0 0.00 0.00 0.00 55 1014.0
20260503004404 49 334 0.0 5.0 0.00 0.00 0.00 55 1013.6
20260503003854 49 338 3.0 5.0 0.00 0.00 0.00 54 1013.5
20260503003346 49 305 1.0 5.0 0.00 0.00 0.00 54 1013.4
20260503003053 49 277 1.0 3.0 0.00 0.00 0.00 53 1013.5
20260503002839 49 339 2.0 3.0 0.00 0.00 0.00 54 1013.3
20260503002411 49 46 1.0 4.0 0.00 0.00 0.00 54 1013.2
20260503001842 50 35 2.0 3.0 0.00 0.00 0.00 54 1013.2
20260503001535 49 76 1.0 3.0 0.00 0.00 0.00 54 1013.5
20260503001334 50 306 1.0 3.0 0.00 0.00 0.00 54 1013.1
20260503000848 50 24 1.0 3.0 0.00 0.00 0.00 53 1013.1
20260503000341 50 39 1.0 8.0 0.00 0.00 0.00 53 1013.0
20260502235849 50 24 4.0 8.0 0.00 0.00 0.00 52 1012.9
20260502235342 50 36 1.0 3.0 0.00 0.00 0.00 52 1012.8
20260502234855 51 30 1.0 4.0 0.00 0.00 0.00 51 1012.8
20260502234549 50 29 1.0 4.0 0.00 0.00 0.00 51 1013.0
20260502234348 51 72 2.0 4.0 0.00 0.00 0.00 51 1012.7
20260502233844 51 48 3.0 7.0 0.00 0.00 0.00 51 1012.6
20260502233057 51 18 0.0 5.0 0.00 0.00 0.00 50 1012.7
20260502232852 51 18 1.0 5.0 0.00 0.00 0.00 50 1012.5
20260502232345 51 42 3.0 5.0 0.00 0.00 0.00 50 1012.4
20260502231837 52 328 2.0 5.0 0.00 0.00 0.00 51 1012.4
20260502231550 51 30 1.0 3.0 0.00 0.00 0.00 51 1012.6
20260502231350 52 30 1.0 0.0 0.00 0.00 0.00 51 1012.3
20260502230841 52 63 1.0 2.0 0.00 0.00 0.00 51 1012.4
20260502230415 52 63 0.0 3.0 0.00 0.00 0.00 51 1012.4
20260502230044 52 63 1.0 5.0 0.00 0.00 0.00 50 1012.5
20260502225843 52 18 1.0 5.0 0.00 0.01 0.00 49 1012.3
20260502225356 52 64 3.0 5.0 0.00 0.01 0.00 49 1012.3
20260502224907 52 34 2.0 4.0 0.00 0.01 0.00 49 1012.3
20260502224539 52 337 2.0 4.0 0.00 0.01 0.00 47 1012.4
20260502224339 53 347 3.0 4.0 0.00 0.01 0.00 47 1012.2
20260502223851 53 308 1.0 5.0 0.00 0.01 0.00 47 1012.3
20260502223344 53 29 1.0 5.0 0.00 0.01 0.00 47 1012.2
20260502223037 53 55 2.0 5.0 0.00 0.01 0.00 47 1012.4
20260502222837 53 67 2.0 5.0 0.00 0.01 0.00 47 1012.1
20260502222350 53 11 3.0 5.0 0.00 0.01 0.00 46 1012.1
20260502221902 53 5 1.0 5.0 0.00 0.01 0.00 45 1012.2
20260502221555 53 5 1.0 7.0 0.00 0.01 0.00 45 1012.3
20260502221354 54 360 2.0 7.0 0.00 0.01 0.00 45 1012.1
20260502220848 54 5 4.0 7.0 0.00 0.01 0.00 45 1012.0
20260502220400 54 5 2.0 4.0 0.00 0.01 0.00 44 1011.9
20260502220050 53 327 1.0 4.0 0.00 0.01 0.00 43 1012.1
20260502215849 54 342 2.0 4.0 0.00 0.01 0.00 43 1011.9
20260502215343 54 9 2.0 4.0 0.00 0.01 0.00 43 1011.9
20260502214854 54 327 2.0 5.0 0.00 0.01 0.00 42 1012.0
20260502214547 53 5 2.0 5.0 0.00 0.01 0.00 43 1012.2
20260502214347 54 314 3.0 5.0 0.00 0.01 0.00 43 1011.9
20260502213839 54 74 2.0 5.0 0.00 0.01 0.00 43 1011.9
20260502213352 54 332 2.0 6.0 0.00 0.01 0.00 42 1011.9
20260502213045 53 36 3.0 6.0 0.00 0.01 0.00 42 1012.1
20260502212845 54 332 3.0 6.0 0.00 0.01 0.00 41 1011.9
20260502212337 54 37 2.0 5.0 0.00 0.01 0.00 42 1012.0
20260502211850 54 329 2.0 6.0 0.00 0.01 0.00 42 1011.9
20260502211554 54 325 2.0 6.0 0.00 0.01 0.00 43 1012.1
20260502211347 54 50 2.0 5.0 0.00 0.01 0.00 42 1011.9
20260502210839 55 327 3.0 5.0 0.00 0.01 0.00 41 1011.9
20260502210354 55 34 3.0 6.0 0.00 0.01 0.00 40 1011.8
20260502210003 55 243 3.0 6.0 0.00 0.02 0.00 41 1011.9
20260502205902 55 5 2.0 5.0 0.00 0.02 0.00 41 1011.8
20260502205355 54 297 2.0 6.0 0.00 0.02 0.00 41 1011.8
20260502204847 55 269 2.0 4.0 0.00 0.02 0.00 41 1011.8
20260502204539 54 340 0.0 6.0 0.00 0.02 0.00 42 1011.9
20260502204338 55 340 2.0 6.0 0.00 0.02 0.00 42 1011.8
20260502203851 54 293 3.0 6.0 0.00 0.02 0.00 41 1011.8
20260502203404 55 321 3.0 7.0 0.00 0.02 0.00 42 1011.8
20260502203059 54 355 1.0 7.0 0.00 0.02 0.00 41 1012.0
20260502202856 55 346 4.0 7.0 0.00 0.02 0.00 40 1011.8
20260502202348 56 298 3.0 5.0 0.00 0.02 0.00 40 1011.8
20260502201859 56 15 3.0 10.0 0.00 0.02 0.00 41 1011.9
20260502201551 55 22 3.0 10.0 0.00 0.02 0.00 41 1012.0
20260502201351 55 340 4.0 10.0 0.00 0.02 0.00 42 1011.9
20260502200844 55 5 2.0 7.0 0.00 0.02 0.00 41 1011.8
20260502200358 54 360 2.0 6.0 0.00 0.02 0.00 41 1011.8
20260502200050 54 12 3.0 6.0 0.00 0.02 0.00 43 1012.0
20260502195847 54 296 2.0 5.0 0.00 0.04 0.00 43 1011.8
20260502195340 54 236 2.0 5.0 0.00 0.04 0.00 43 1011.9
20260502194913 54 346 3.0 8.0 0.00 0.04 0.00 42 1012.1
20260502194505 53 355 3.0 8.0 0.00 0.04 0.00 43 1012.3
20260502194405 54 282 4.0 8.0 0.00 0.04 0.00 42 1012.2
20260502193857 54 77 2.0 7.0 0.00 0.04 0.00 43 1012.3
20260502193408 54 317 2.0 6.0 0.00 0.04 0.00 43 1012.3
20260502193040 54 313 2.0 6.0 0.00 0.04 0.00 42 1012.5
20260502192839 54 145 3.0 6.0 0.00 0.04 0.00 41 1012.4
20260502192351 54 159 2.0 7.0 0.00 0.04 0.00 42 1012.6
20260502191844 54 334 4.0 7.0 0.00 0.04 0.00 42 1012.5
20260502191538 54 211 1.0 5.0 0.00 0.04 0.00 44 1012.7
20260502191336 54 156 3.0 5.0 0.00 0.04 0.00 42 1012.6
20260502190848 54 5 2.0 5.0 0.00 0.04 0.00 42 1012.7
20260502190402 54 17 3.0 5.0 0.00 0.04 0.00 42 1012.8
20260502190051 54 348 3.0 6.0 0.00 0.04 0.00 43 1013.0
20260502185850 55 286 2.0 6.0 0.00 0.12 0.00 43 1012.8
20260502185343 56 67 3.0 6.0 0.00 0.12 0.00 44 1012.9
20260502184854 55 336 2.0 4.0 0.00 0.12 0.00 43 1013.0
20260502184548 54 346 2.0 4.0 0.00 0.12 0.00 44 1013.2
20260502184347 54 60 2.0 4.0 0.00 0.12 0.00 46 1013.0
20260502183858 52 54 2.0 6.0 0.00 0.12 0.00 47 1013.1
20260502183350 53 300 3.0 6.0 0.00 0.12 0.00 46 1013.2
20260502183043 52 355 1.0 6.0 0.00 0.12 0.00 47 1013.4
20260502182842 53 36 3.0 4.0 0.00 0.12 0.00 46 1013.2
20260502182357 53 45 1.0 4.0 0.00 0.12 0.00 46 1013.2
20260502181928 53 101 1.0 8.0 0.00 0.12 0.00 47 1013.2
20260502181516 53 211 2.0 8.0 0.00 0.12 0.00 46 1013.4
20260502181415 53 250 3.0 8.0 0.00 0.12 0.00 46 1013.3
20260502180848 52 18 0.0 6.0 0.00 0.12 0.00 47 1013.4
20260502180341 52 360 3.0 6.0 0.00 0.12 0.00 46 1013.6
20260502170418 52 276 2.0 5.0 0.00 0.13 0.00 50 1013.7
20260502164345 52 71 3.0 7.0 0.00 0.13 0.00 51 1013.9
20260502163838 52 312 2.0 6.0 0.00 0.13 0.00 50 1013.9
20260502163350 53 331 3.0 9.0 0.00 0.13 0.00 50 1013.8
20260502163056 52 350 3.0 9.0 0.00 0.13 0.00 48 1013.9
20260502162843 53 355 4.0 9.0 0.00 0.13 0.00 50 1013.9
20260502162336 52 53 2.0 5.0 0.00 0.13 0.00 49 1014.1
20260502161850 52 178 3.0 5.0 0.00 0.13 0.00 49 1014.1
20260502161543 52 268 3.0 5.0 0.00 0.13 0.00 49 1014.3
20260502161342 52 307 2.0 5.0 0.00 0.13 0.00 50 1014.1
20260502160855 51 32 1.0 5.0 0.00 0.13 0.00 51 1014.2
20260502160348 51 5 2.0 8.0 0.00 0.13 0.00 51 1014.2
20260502151855 51 310 2.0 5.0 0.00 0.13 0.00 53 1014.4
20260502151551 50 339 2.0 5.0 0.00 0.13 0.00 54 1014.5
20260502151347 51 313 327.0 327.0 0.00 0.00 0.00 54 1014.2
20260502150845 51 13 2.0 8.0 0.00 0.13 0.00 52 1014.5
20260502150415 52 285 5.0 8.0 0.00 0.13 0.00 53 1014.3
20260502123025 44 355 3.0 6.0 0.00 0.13 0.00 68 1014.9
20260502121515 44 46 1.0 5.0 0.00 0.13 0.00 70 1014.9
20260502114514 43 181 0.0 1.0 0.00 0.13 0.00 77 1015.0
20260502113011 41 186 0.0 1.0 0.00 0.13 0.00 82 1015.0
20260502111510 40 186 0.0 0.0 0.00 0.13 0.00 85 1015.0
20260502110009 40 186 0.0 1.0 0.00 0.13 0.00 85 1014.9
20260502104514 40 186 0.0 0.0 0.00 0.13 0.00 86 1014.9
20260502103008 40 186 0.0 0.0 0.00 0.13 0.00 86 1014.9
20260502101547 40 186 0.0 0.0 0.00 0.13 0.00 87 1014.8
20260502071516 45 303 1.0 3.0 0.00 0.13 0.00 73 1014.1
20260502070017 45 15 3.0 6.0 0.00 0.13 0.00 73 1014.0
20260502064519 46 326 2.0 7.0 0.00 0.13 0.00 73 1014.0
20260502063017 46 337 3.0 4.0 0.00 0.13 0.00 74 1014.1
20260502061509 46 355 0.0 4.0 0.00 0.13 0.00 75 1014.0
20260502060007 46 106 2.0 3.0 0.00 0.13 0.00 75 1013.9
20260502054503 47 214 1.0 2.0 0.00 0.13 0.00 73 1013.9
20260502053002 47 5 0.0 3.0 0.00 0.13 0.00 71 1013.9
20260502051559 48 163 0.0 5.0 0.00 0.13 0.00 71 1013.9
20260502050058 48 117 2.0 4.0 0.00 0.13 0.00 73 1013.7
20260502044856 49 84 1.0 4.0 0.00 0.13 0.00 72 1013.3
20260502044548 48 146 0.0 4.0 0.00 0.13 0.00 71 1013.6
20260502044347 49 146 1.0 4.0 0.00 0.13 0.00 70 1013.4
20260502043840 50 123 0.0 1.0 0.00 0.13 0.00 69 1013.5
20260502043412 50 123 0.0 3.0 0.00 0.13 0.00 68 1013.5
20260502043045 50 123 0.0 7.0 0.00 0.13 0.00 67 1013.6
20260502042843 50 123 0.0 7.0 0.00 0.13 0.00 67 1013.3
20260502042355 51 64 1.0 4.0 0.00 0.13 0.00 67 1013.5
20260502041848 51 131 2.0 5.0 0.00 0.13 0.00 67 1013.6
20260502041544 50 216 1.0 5.0 0.00 0.13 0.00 68 1013.8
20260502041340 51 210 1.0 5.0 0.00 0.13 0.00 68 1013.6
20260502040934 51 60 3.0 5.0 0.00 0.13 0.00 68 1013.5
20260502040500 51 50 3.0 5.0 0.00 0.13 0.00 68 1013.3
20260502040042 51 360 1.0 6.0 0.00 0.13 0.00 70 1013.5
20260502035842 52 78 1.0 6.0 0.00 0.13 0.13 69 1013.3
20260502035339 52 17 2.0 6.0 0.00 0.13 0.13 70 1013.2
20260502034545 51 189 2.0 6.0 0.00 0.13 0.13 69 1013.4
20260502034344 52 161 1.0 3.0 0.00 0.13 0.13 69 1013.1
20260502033837 52 152 2.0 0.0 0.00 0.00 0.13 69 1012.9
20260502033348 52 157 2.0 4.0 0.00 0.13 0.13 69 1013.0
20260502033042 51 141 0.0 6.0 0.00 0.13 0.13 68 1013.3
20260502032841 52 141 0.0 6.0 0.00 0.13 0.13 68 1013.0
20260502032353 52 184 3.0 6.0 0.00 0.13 0.13 68 1013.0
20260502031907 52 53 2.0 4.0 0.00 0.13 0.13 69 1012.9
20260502031558 52 97 1.0 5.0 0.00 0.13 0.13 69 1013.1
20260502031358 52 200 1.0 3.0 0.00 0.13 0.13 68 1012.8
20260502030911 52 154 1.0 3.0 0.00 0.13 0.13 68 1012.5
20260502030346 52 222 0.0 5.0 0.00 0.13 0.13 67 1012.6
20260502030021 52 161 2.0 5.0 0.00 0.13 0.13 67 1012.9
20260502025915 52 201 3.0 4.0 0.00 0.13 0.13 67 1012.6
20260502025408 53 144 3.0 4.0 0.00 0.13 0.13 68 1012.6
20260502024840 53 46 1.0 4.0 0.00 0.13 0.13 66 1012.7
20260502024605 52 46 0.0 4.0 0.00 0.13 0.13 67 1013.0
20260502024354 53 46 2.0 4.0 0.00 0.13 0.13 67 1012.8
20260502023906 53 46 1.0 4.0 0.00 0.13 0.13 67 1012.9
20260502023338 53 52 0.0 4.0 0.00 0.13 0.13 67 1012.8